Year,Month,Day,Hour,Minute,Value (Times are PST for windspeed in km/hr)
2016,10,12,00,00,1.10
2016,10,12,00,01,0.00
2016,10,12,00,02,0.00
2016,10,12,00,03,0.00
2016,10,12,00,04,1.00
2016,10,12,00,05,0.10
2016,10,12,00,06,0.00
2016,10,12,00,07,0.00
2016,10,12,00,08,0.40
2016,10,12,00,09,0.00
2016,10,12,00,10,2.70
2016,10,12,00,11,2.60
2016,10,12,00,12,3.10
2016,10,12,00,13,4.50
2016,10,12,00,14,3.50
2016,10,12,00,15,0.60
2016,10,12,00,16,0.00
2016,10,12,00,17,0.60
2016,10,12,00,18,0.10
2016,10,12,00,19,0.00
2016,10,12,00,20,0.90
2016,10,12,00,21,0.00
2016,10,12,00,22,0.00
2016,10,12,00,23,0.00
2016,10,12,00,24,0.10
2016,10,12,00,25,0.00
2016,10,12,00,26,0.00
2016,10,12,00,27,0.00
2016,10,12,00,28,0.00
2016,10,12,00,29,0.00
2016,10,12,00,30,0.00
2016,10,12,00,31,1.40
2016,10,12,00,32,0.20
2016,10,12,00,33,0.00
2016,10,12,00,34,0.00
2016,10,12,00,35,0.10
2016,10,12,00,36,1.10
2016,10,12,00,37,0.00
2016,10,12,00,38,0.00
2016,10,12,00,39,0.00
2016,10,12,00,40,0.00
2016,10,12,00,41,0.00
2016,10,12,00,42,0.00
2016,10,12,00,43,0.00
2016,10,12,00,44,0.50
2016,10,12,00,45,0.00
2016,10,12,00,46,0.00
2016,10,12,00,47,3.30
2016,10,12,00,48,3.90
2016,10,12,00,49,2.20
2016,10,12,00,50,0.20
2016,10,12,00,51,0.00
2016,10,12,00,52,0.00
2016,10,12,00,53,1.00
2016,10,12,00,54,1.30
2016,10,12,00,55,0.00
2016,10,12,00,56,1.30
2016,10,12,00,57,0.60
2016,10,12,00,58,1.10
2016,10,12,00,59,0.00
2016,10,12,01,00,0.00
2016,10,12,01,01,0.00
2016,10,12,01,02,0.00
2016,10,12,01,03,0.00
2016,10,12,01,04,0.60
2016,10,12,01,05,0.00
2016,10,12,01,06,0.00
2016,10,12,01,07,0.00
2016,10,12,01,08,0.00
2016,10,12,01,09,0.00
2016,10,12,01,10,0.00
2016,10,12,01,11,0.00
2016,10,12,01,12,0.00
2016,10,12,01,13,0.00
2016,10,12,01,14,0.00
2016,10,12,01,15,0.00
2016,10,12,01,16,0.00
2016,10,12,01,17,0.00
2016,10,12,01,18,0.00
2016,10,12,01,19,0.00
2016,10,12,01,20,0.00
2016,10,12,01,21,0.00
2016,10,12,01,22,0.00
2016,10,12,01,23,0.00
2016,10,12,01,24,0.00
2016,10,12,01,25,0.00
2016,10,12,01,26,0.00
2016,10,12,01,27,0.00
2016,10,12,01,28,0.00
2016,10,12,01,29,0.00
2016,10,12,01,30,0.10
2016,10,12,01,31,0.00
2016,10,12,01,32,0.00
2016,10,12,01,33,0.00
2016,10,12,01,34,0.00
2016,10,12,01,35,0.00
2016,10,12,01,36,0.00
2016,10,12,01,37,0.00
2016,10,12,01,38,0.00
2016,10,12,01,39,0.00
2016,10,12,01,40,0.00
2016,10,12,01,41,0.00
2016,10,12,01,42,0.00
2016,10,12,01,43,0.00
2016,10,12,01,44,0.00
2016,10,12,01,45,0.00
2016,10,12,01,46,0.00
2016,10,12,01,47,0.00
2016,10,12,01,48,0.00
2016,10,12,01,49,0.00
2016,10,12,01,50,0.00
2016,10,12,01,51,0.00
2016,10,12,01,52,0.00
2016,10,12,01,53,0.00
2016,10,12,01,54,0.00
2016,10,12,01,55,0.00
2016,10,12,01,56,0.00
2016,10,12,01,57,0.00
2016,10,12,01,58,0.00
2016,10,12,01,59,0.00
2016,10,12,02,00,0.00
2016,10,12,02,01,0.00
2016,10,12,02,02,0.00
2016,10,12,02,03,0.00
2016,10,12,02,04,0.00
2016,10,12,02,05,0.00
2016,10,12,02,06,2.20
2016,10,12,02,07,0.00
2016,10,12,02,08,0.10
2016,10,12,02,09,2.80
2016,10,12,02,10,3.20
2016,10,12,02,11,2.70
2016,10,12,02,12,3.40
2016,10,12,02,13,3.40
2016,10,12,02,14,1.00
2016,10,12,02,15,0.00
2016,10,12,02,16,1.30
2016,10,12,02,17,2.30
2016,10,12,02,18,0.00
2016,10,12,02,19,0.00
2016,10,12,02,20,0.30
2016,10,12,02,21,2.00
2016,10,12,02,22,1.20
2016,10,12,02,23,0.00
2016,10,12,02,24,0.00
2016,10,12,02,25,0.00
2016,10,12,02,26,0.00
2016,10,12,02,27,0.00
2016,10,12,02,28,0.00
2016,10,12,02,29,0.00
2016,10,12,02,30,0.00
2016,10,12,02,31,0.00
2016,10,12,02,32,0.00
2016,10,12,02,33,0.00
2016,10,12,02,34,0.00
2016,10,12,02,35,0.50
2016,10,12,02,36,0.20
2016,10,12,02,37,0.00
2016,10,12,02,38,0.20
2016,10,12,02,39,1.10
2016,10,12,02,40,0.70
2016,10,12,02,41,1.10
2016,10,12,02,42,2.30
2016,10,12,02,43,3.80
2016,10,12,02,44,2.70
2016,10,12,02,45,5.20
2016,10,12,02,46,4.40
2016,10,12,02,47,4.40
2016,10,12,02,48,6.10
2016,10,12,02,49,5.70
2016,10,12,02,50,5.10
2016,10,12,02,51,3.70
2016,10,12,02,52,3.50
2016,10,12,02,53,5.60
2016,10,12,02,54,5.90
2016,10,12,02,55,4.00
2016,10,12,02,56,5.60
2016,10,12,02,57,2.60
2016,10,12,02,58,5.00
2016,10,12,02,59,4.40
2016,10,12,03,00,4.60
2016,10,12,03,01,3.50
2016,10,12,03,02,4.30
2016,10,12,03,03,1.40
2016,10,12,03,04,1.10
2016,10,12,03,05,0.00
2016,10,12,03,06,0.10
2016,10,12,03,07,0.60
2016,10,12,03,08,0.00
2016,10,12,03,09,0.00
2016,10,12,03,10,0.10
2016,10,12,03,11,0.00
2016,10,12,03,12,0.00
2016,10,12,03,13,0.00
2016,10,12,03,14,0.00
2016,10,12,03,15,3.70
2016,10,12,03,16,0.00
2016,10,12,03,17,1.50
2016,10,12,03,18,1.40
2016,10,12,03,19,1.00
2016,10,12,03,20,0.30
2016,10,12,03,21,0.40
2016,10,12,03,22,0.20
2016,10,12,03,23,0.00
2016,10,12,03,24,0.80
2016,10,12,03,25,0.50
2016,10,12,03,26,0.00
2016,10,12,03,27,0.00
2016,10,12,03,28,1.30
2016,10,12,03,29,0.00
2016,10,12,03,30,1.10
2016,10,12,03,31,0.00
2016,10,12,03,32,0.00
2016,10,12,03,33,0.80
2016,10,12,03,34,0.10
2016,10,12,03,35,2.20
2016,10,12,03,36,0.00
2016,10,12,03,37,0.80
2016,10,12,03,38,0.00
2016,10,12,03,39,0.00
2016,10,12,03,40,1.10
2016,10,12,03,41,1.00
2016,10,12,03,42,0.00
2016,10,12,03,43,0.00
2016,10,12,03,44,0.00
2016,10,12,03,45,0.00
2016,10,12,03,46,0.10
2016,10,12,03,47,0.20
2016,10,12,03,48,0.20
2016,10,12,03,49,1.20
2016,10,12,03,50,1.00
2016,10,12,03,51,0.90
2016,10,12,03,52,0.00
2016,10,12,03,53,0.00
2016,10,12,03,54,0.00
2016,10,12,03,55,0.00
2016,10,12,03,56,1.00
2016,10,12,03,57,0.00
2016,10,12,03,58,0.00
2016,10,12,03,59,2.70
2016,10,12,04,00,1.60
2016,10,12,04,01,0.00
2016,10,12,04,02,0.00
2016,10,12,04,03,0.80
2016,10,12,04,04,0.10
2016,10,12,04,05,0.00
2016,10,12,04,06,0.10
2016,10,12,04,07,0.20
2016,10,12,04,08,0.10
2016,10,12,04,09,0.00
2016,10,12,04,10,0.00
2016,10,12,04,11,0.00
2016,10,12,04,12,0.00
2016,10,12,04,13,0.00
2016,10,12,04,14,0.00
2016,10,12,04,15,0.00
2016,10,12,04,16,0.00
2016,10,12,04,17,0.00
2016,10,12,04,18,0.00
2016,10,12,04,19,0.00
2016,10,12,04,20,0.00
2016,10,12,04,21,0.00
2016,10,12,04,22,0.00
2016,10,12,04,23,0.00
2016,10,12,04,24,0.00
2016,10,12,04,25,0.00
2016,10,12,04,26,0.00
2016,10,12,04,27,0.00
2016,10,12,04,28,1.30
2016,10,12,04,29,3.20
2016,10,12,04,30,3.30
2016,10,12,04,31,1.20
2016,10,12,04,32,0.00
2016,10,12,04,33,0.00
2016,10,12,04,34,0.80
2016,10,12,04,35,0.00
2016,10,12,04,36,0.30
2016,10,12,04,37,0.50
2016,10,12,04,38,2.00
2016,10,12,04,39,0.50
2016,10,12,04,40,1.00
2016,10,12,04,41,2.70
2016,10,12,04,42,0.30
2016,10,12,04,43,0.00
2016,10,12,04,44,0.00
2016,10,12,04,45,0.00
2016,10,12,04,46,0.00
2016,10,12,04,47,0.00
2016,10,12,04,48,0.10
2016,10,12,04,49,0.20
2016,10,12,04,50,0.00
2016,10,12,04,51,0.00
2016,10,12,04,52,0.00
2016,10,12,04,53,3.50
2016,10,12,04,54,4.00
2016,10,12,04,55,2.00
2016,10,12,04,56,3.60
2016,10,12,04,57,1.50
2016,10,12,04,58,0.00
2016,10,12,04,59,0.80
2016,10,12,05,00,3.20
2016,10,12,05,01,2.80
2016,10,12,05,02,3.60
2016,10,12,05,03,2.80
2016,10,12,05,04,0.40
2016,10,12,05,05,0.70
2016,10,12,05,06,0.00
2016,10,12,05,07,0.00
2016,10,12,05,08,0.00
2016,10,12,05,09,0.00
2016,10,12,05,10,0.00
2016,10,12,05,11,0.00
2016,10,12,05,12,3.10
2016,10,12,05,13,6.00
2016,10,12,05,14,5.50
2016,10,12,05,15,5.40
2016,10,12,05,16,5.40
2016,10,12,05,17,6.80
2016,10,12,05,18,5.00
2016,10,12,05,19,4.00
2016,10,12,05,20,3.90
2016,10,12,05,21,5.00
2016,10,12,05,22,5.10
2016,10,12,05,23,4.10
2016,10,12,05,24,1.90
2016,10,12,05,25,3.90
2016,10,12,05,26,1.80
2016,10,12,05,27,0.00
2016,10,12,05,28,0.00
2016,10,12,05,29,0.00
2016,10,12,05,30,0.00
2016,10,12,05,31,0.60
2016,10,12,05,32,4.00
2016,10,12,05,33,3.30
2016,10,12,05,34,4.80
2016,10,12,05,35,3.70
2016,10,12,05,36,3.90
2016,10,12,05,37,2.90
2016,10,12,05,38,0.50
2016,10,12,05,39,0.00
2016,10,12,05,40,0.10
2016,10,12,05,41,0.90
2016,10,12,05,42,4.80
2016,10,12,05,43,3.10
2016,10,12,05,44,3.00
2016,10,12,05,45,4.20
2016,10,12,05,46,4.10
2016,10,12,05,47,6.80
2016,10,12,05,48,5.30
2016,10,12,05,49,6.40
2016,10,12,05,50,5.50
2016,10,12,05,51,4.70
2016,10,12,05,52,4.20
2016,10,12,05,53,1.80
2016,10,12,05,54,0.20
2016,10,12,05,55,2.50
2016,10,12,05,56,1.80
2016,10,12,05,57,0.00
2016,10,12,05,58,0.20
2016,10,12,05,59,0.00
2016,10,12,06,00,0.00
2016,10,12,06,01,0.00
2016,10,12,06,02,1.80
2016,10,12,06,03,0.00
2016,10,12,06,04,0.00
2016,10,12,06,05,1.50
2016,10,12,06,06,4.10
2016,10,12,06,07,4.70
2016,10,12,06,08,5.50
2016,10,12,06,09,4.50
2016,10,12,06,10,4.70
2016,10,12,06,11,5.30
2016,10,12,06,12,6.30
2016,10,12,06,13,3.90
2016,10,12,06,14,3.30
2016,10,12,06,15,1.20
2016,10,12,06,16,0.00
2016,10,12,06,17,0.00
2016,10,12,06,18,0.00
2016,10,12,06,19,0.00
2016,10,12,06,20,0.00
2016,10,12,06,21,0.00
2016,10,12,06,22,0.00
2016,10,12,06,23,0.00
2016,10,12,06,24,0.00
2016,10,12,06,25,0.00
2016,10,12,06,26,0.00
2016,10,12,06,27,0.00
2016,10,12,06,28,0.00
2016,10,12,06,29,0.00
2016,10,12,06,30,2.10
2016,10,12,06,31,3.30
2016,10,12,06,32,1.90
2016,10,12,06,33,2.90
2016,10,12,06,34,0.10
2016,10,12,06,35,3.00
2016,10,12,06,36,3.70
2016,10,12,06,37,3.00
2016,10,12,06,38,4.20
2016,10,12,06,39,1.80
2016,10,12,06,40,2.20
2016,10,12,06,41,5.20
2016,10,12,06,42,3.80
2016,10,12,06,43,5.10
2016,10,12,06,44,4.60
2016,10,12,06,45,1.40
2016,10,12,06,46,3.50
2016,10,12,06,47,6.40
2016,10,12,06,48,6.80
2016,10,12,06,49,6.40
2016,10,12,06,50,7.60
2016,10,12,06,51,8.80
2016,10,12,06,52,10.30
2016,10,12,06,53,10.50
2016,10,12,06,54,7.50
2016,10,12,06,55,5.80
2016,10,12,06,56,7.70
2016,10,12,06,57,5.30
2016,10,12,06,58,5.90
2016,10,12,06,59,4.00
2016,10,12,07,00,6.00
2016,10,12,07,01,5.40
2016,10,12,07,02,5.90
2016,10,12,07,03,5.70
2016,10,12,07,04,5.60
2016,10,12,07,05,6.20
2016,10,12,07,06,4.60
2016,10,12,07,07,8.00
2016,10,12,07,08,5.20
2016,10,12,07,09,6.10
2016,10,12,07,10,5.10
2016,10,12,07,11,6.10
2016,10,12,07,12,6.20
2016,10,12,07,13,3.90
2016,10,12,07,14,4.10
2016,10,12,07,15,4.40
2016,10,12,07,16,5.20
2016,10,12,07,17,2.40
2016,10,12,07,18,0.00
2016,10,12,07,19,0.10
2016,10,12,07,20,1.00
2016,10,12,07,21,4.50
2016,10,12,07,22,1.90
2016,10,12,07,23,0.60
2016,10,12,07,24,0.60
2016,10,12,07,25,0.90
2016,10,12,07,26,1.40
2016,10,12,07,27,0.20
2016,10,12,07,28,0.20
2016,10,12,07,29,0.00
2016,10,12,07,30,0.90
2016,10,12,07,31,3.70
2016,10,12,07,32,1.00
2016,10,12,07,33,0.00
2016,10,12,07,34,0.20
2016,10,12,07,35,7.50
2016,10,12,07,36,7.60
2016,10,12,07,37,8.70
2016,10,12,07,38,10.50
2016,10,12,07,39,6.00
2016,10,12,07,40,5.50
2016,10,12,07,41,4.00
2016,10,12,07,42,1.70
2016,10,12,07,43,2.90
2016,10,12,07,44,3.40
2016,10,12,07,45,3.10
2016,10,12,07,46,5.60
2016,10,12,07,47,4.70
2016,10,12,07,48,4.30
2016,10,12,07,49,5.80
2016,10,12,07,50,1.90
2016,10,12,07,51,4.10
2016,10,12,07,52,7.90
2016,10,12,07,53,3.90
2016,10,12,07,54,3.70
2016,10,12,07,55,3.10
2016,10,12,07,56,4.40
2016,10,12,07,57,2.60
2016,10,12,07,58,0.00
2016,10,12,07,59,0.00
2016,10,12,08,00,0.00
2016,10,12,08,01,0.20
2016,10,12,08,02,2.20
2016,10,12,08,03,3.30
2016,10,12,08,04,0.00
2016,10,12,08,05,0.80
2016,10,12,08,06,0.60
2016,10,12,08,07,0.10
2016,10,12,08,08,2.20
2016,10,12,08,09,3.30
2016,10,12,08,10,0.10
2016,10,12,08,11,0.00
2016,10,12,08,12,2.40
2016,10,12,08,13,0.10
2016,10,12,08,14,5.00
2016,10,12,08,15,2.80
2016,10,12,08,16,4.80
2016,10,12,08,17,0.00
2016,10,12,08,18,0.20
2016,10,12,08,19,0.00
2016,10,12,08,20,1.70
2016,10,12,08,21,1.70
2016,10,12,08,22,2.70
2016,10,12,08,23,0.00
2016,10,12,08,24,0.00
2016,10,12,08,25,0.00
2016,10,12,08,26,3.10
2016,10,12,08,27,0.70
2016,10,12,08,28,1.80
2016,10,12,08,29,3.60
2016,10,12,08,30,1.00
2016,10,12,08,31,2.40
2016,10,12,08,32,5.30
2016,10,12,08,33,1.00
2016,10,12,08,34,4.40
2016,10,12,08,35,2.80
2016,10,12,08,36,3.50
2016,10,12,08,37,1.70
2016,10,12,08,38,1.00
2016,10,12,08,39,3.20
2016,10,12,08,40,3.50
2016,10,12,08,41,7.40
2016,10,12,08,42,3.50
2016,10,12,08,43,6.00
2016,10,12,08,44,5.40
2016,10,12,08,45,1.10
2016,10,12,08,46,1.30
2016,10,12,08,47,4.80
2016,10,12,08,48,7.40
2016,10,12,08,49,6.10
2016,10,12,08,50,3.60
2016,10,12,08,51,1.90
2016,10,12,08,52,2.80
2016,10,12,08,53,3.00
2016,10,12,08,54,5.60
2016,10,12,08,55,1.30
2016,10,12,08,56,4.30
2016,10,12,08,57,1.70
2016,10,12,08,58,5.10
2016,10,12,08,59,1.40
2016,10,12,09,00,7.00
2016,10,12,09,01,5.90
2016,10,12,09,02,5.70
2016,10,12,09,03,2.30
2016,10,12,09,04,1.30
2016,10,12,09,05,2.80
2016,10,12,09,06,4.50
2016,10,12,09,07,1.90
2016,10,12,09,08,0.00
2016,10,12,09,09,3.90
2016,10,12,09,10,0.90
2016,10,12,09,11,0.00
2016,10,12,09,12,0.00
2016,10,12,09,13,1.00
2016,10,12,09,14,1.50
2016,10,12,09,15,0.90
2016,10,12,09,16,0.00
2016,10,12,09,17,0.00
2016,10,12,09,18,2.00
2016,10,12,09,19,0.10
2016,10,12,09,20,1.80
2016,10,12,09,21,3.10
2016,10,12,09,22,1.50
2016,10,12,09,23,0.40
2016,10,12,09,24,1.40
2016,10,12,09,25,0.00
2016,10,12,09,26,0.00
2016,10,12,09,27,2.90
2016,10,12,09,28,5.00
2016,10,12,09,29,1.60
2016,10,12,09,30,0.70
2016,10,12,09,31,3.20
2016,10,12,09,32,0.50
2016,10,12,09,33,3.50
2016,10,12,09,34,1.30
2016,10,12,09,35,0.30
2016,10,12,09,36,0.30
2016,10,12,09,37,0.30
2016,10,12,09,38,0.00
2016,10,12,09,39,0.00
2016,10,12,09,40,0.00
2016,10,12,09,41,0.30
2016,10,12,09,42,1.80
2016,10,12,09,43,6.80
2016,10,12,09,44,6.50
2016,10,12,09,45,1.20
2016,10,12,09,46,0.40
2016,10,12,09,47,2.80
2016,10,12,09,48,6.80
2016,10,12,09,49,7.00
2016,10,12,09,50,3.90
2016,10,12,09,51,5.20
2016,10,12,09,52,5.10
2016,10,12,09,53,2.30
2016,10,12,09,54,5.50
2016,10,12,09,55,6.40
2016,10,12,09,56,4.90
2016,10,12,09,57,2.20
2016,10,12,09,58,8.40
2016,10,12,09,59,8.40
2016,10,12,10,00,7.30
2016,10,12,10,01,3.00
2016,10,12,10,02,3.50
2016,10,12,10,03,5.60
2016,10,12,10,04,6.80
2016,10,12,10,05,5.20
2016,10,12,10,06,4.00
2016,10,12,10,07,7.70
2016,10,12,10,08,7.60
2016,10,12,10,09,8.00
2016,10,12,10,10,7.70
2016,10,12,10,11,10.10
2016,10,12,10,12,10.10
2016,10,12,10,13,12.80
2016,10,12,10,14,12.10
2016,10,12,10,15,9.50
2016,10,12,10,16,11.10
2016,10,12,10,17,16.30
2016,10,12,10,18,15.90
2016,10,12,10,19,17.90
2016,10,12,10,20,14.20
2016,10,12,10,21,18.00
2016,10,12,10,22,10.70
2016,10,12,10,23,11.90
2016,10,12,10,24,9.80
2016,10,12,10,25,13.80
2016,10,12,10,26,12.20
2016,10,12,10,27,16.20
2016,10,12,10,28,17.10
2016,10,12,10,29,13.40
2016,10,12,10,30,12.00
2016,10,12,10,31,12.60
2016,10,12,10,32,11.50
2016,10,12,10,33,12.20
2016,10,12,10,34,12.40
2016,10,12,10,35,13.40
2016,10,12,10,36,12.80
2016,10,12,10,37,10.50
2016,10,12,10,38,13.70
2016,10,12,10,39,17.20
2016,10,12,10,40,13.00
2016,10,12,10,41,13.20
2016,10,12,10,42,11.10
2016,10,12,10,43,12.40
2016,10,12,10,44,13.40
2016,10,12,10,45,8.70
2016,10,12,10,46,15.90
2016,10,12,10,47,11.90
2016,10,12,10,48,11.20
2016,10,12,10,49,9.30
2016,10,12,10,50,14.10
2016,10,12,10,51,16.70
2016,10,12,10,52,17.30
2016,10,12,10,53,12.50
2016,10,12,10,54,12.20
2016,10,12,10,55,9.20
2016,10,12,10,56,10.90
2016,10,12,10,57,12.40
2016,10,12,10,58,10.80
2016,10,12,10,59,14.70
2016,10,12,11,00,13.80
2016,10,12,11,01,14.60
2016,10,12,11,02,13.00
2016,10,12,11,03,11.00
2016,10,12,11,04,10.60
2016,10,12,11,05,9.90
2016,10,12,11,06,10.40
2016,10,12,11,07,11.20
2016,10,12,11,08,14.20
2016,10,12,11,09,13.50
2016,10,12,11,10,13.40
2016,10,12,11,11,14.60
2016,10,12,11,12,6.80
2016,10,12,11,13,13.30
2016,10,12,11,14,15.20
2016,10,12,11,15,15.60
2016,10,12,11,16,14.90
2016,10,12,11,17,17.30
2016,10,12,11,18,14.30
2016,10,12,11,19,14.20
2016,10,12,11,20,14.40
2016,10,12,11,21,12.20
2016,10,12,11,22,11.70
2016,10,12,11,23,16.90
2016,10,12,11,24,13.30
2016,10,12,11,25,13.70
2016,10,12,11,26,7.40
2016,10,12,11,27,13.40
2016,10,12,11,28,10.10
2016,10,12,11,29,12.80
2016,10,12,11,30,12.60
2016,10,12,11,31,15.70
2016,10,12,11,32,12.60
2016,10,12,11,33,8.20
2016,10,12,11,34,11.90
2016,10,12,11,35,12.20
2016,10,12,11,36,16.40
2016,10,12,11,37,16.80
2016,10,12,11,38,13.00
2016,10,12,11,39,15.80
2016,10,12,11,40,13.80
2016,10,12,11,41,12.50
2016,10,12,11,42,13.20
2016,10,12,11,43,13.00
2016,10,12,11,44,17.70
2016,10,12,11,45,17.30
2016,10,12,11,46,13.70
2016,10,12,11,47,13.00
2016,10,12,11,48,14.40
2016,10,12,11,49,11.60
2016,10,12,11,50,10.90
2016,10,12,11,51,15.40
2016,10,12,11,52,16.30
2016,10,12,11,53,14.60
2016,10,12,11,54,15.10
2016,10,12,11,55,15.60
2016,10,12,11,56,18.40
2016,10,12,11,57,15.40
2016,10,12,11,58,15.20
2016,10,12,11,59,15.20
2016,10,12,12,00,11.10
2016,10,12,12,01,14.90
2016,10,12,12,02,13.80
2016,10,12,12,03,13.40
2016,10,12,12,04,14.60
2016,10,12,12,05,13.30
2016,10,12,12,06,10.50
2016,10,12,12,07,14.30
2016,10,12,12,08,15.30
2016,10,12,12,09,17.70
2016,10,12,12,10,17.90
2016,10,12,12,11,14.40
2016,10,12,12,12,9.50
2016,10,12,12,13,9.60
2016,10,12,12,14,12.60
2016,10,12,12,15,13.20
2016,10,12,12,16,15.30
2016,10,12,12,17,12.60
2016,10,12,12,18,13.60
2016,10,12,12,19,13.00
2016,10,12,12,20,16.50
2016,10,12,12,21,18.30
2016,10,12,12,22,15.50
2016,10,12,12,23,16.00
2016,10,12,12,24,16.80
2016,10,12,12,25,16.00
2016,10,12,12,26,12.50
2016,10,12,12,27,9.60
2016,10,12,12,28,12.40
2016,10,12,12,29,13.90
2016,10,12,12,30,13.20
2016,10,12,12,31,11.10
2016,10,12,12,32,13.80
2016,10,12,12,33,15.60
2016,10,12,12,34,11.60
2016,10,12,12,35,14.00
2016,10,12,12,36,17.30
2016,10,12,12,37,14.40
2016,10,12,12,38,14.20
2016,10,12,12,39,12.60
2016,10,12,12,40,11.40
2016,10,12,12,41,14.20
2016,10,12,12,42,14.30
2016,10,12,12,43,14.10
2016,10,12,12,44,8.40
2016,10,12,12,45,11.30
2016,10,12,12,46,12.90
2016,10,12,12,47,11.20
2016,10,12,12,48,12.80
2016,10,12,12,49,8.20
2016,10,12,12,50,10.80
2016,10,12,12,51,8.80
2016,10,12,12,52,9.50
2016,10,12,12,53,12.60
2016,10,12,12,54,12.60
2016,10,12,12,55,13.80
2016,10,12,12,56,10.50
2016,10,12,12,57,11.30
2016,10,12,12,58,8.80
2016,10,12,12,59,10.50
2016,10,12,13,00,11.00
2016,10,12,13,01,13.80
2016,10,12,13,02,14.20
2016,10,12,13,03,14.30
2016,10,12,13,04,16.10
2016,10,12,13,05,17.10
2016,10,12,13,06,15.00
2016,10,12,13,07,11.80
2016,10,12,13,08,12.60
2016,10,12,13,09,15.50
2016,10,12,13,10,13.80
2016,10,12,13,11,14.70
2016,10,12,13,12,15.60
2016,10,12,13,13,8.40
2016,10,12,13,14,15.50
2016,10,12,13,15,14.60
2016,10,12,13,16,14.80
2016,10,12,13,17,20.90
2016,10,12,13,18,14.50
2016,10,12,13,19,13.60
2016,10,12,13,20,15.40
2016,10,12,13,21,13.40
2016,10,12,13,22,12.40
2016,10,12,13,23,11.30
2016,10,12,13,24,16.70
2016,10,12,13,25,11.90
2016,10,12,13,26,12.70
2016,10,12,13,27,15.90
2016,10,12,13,28,10.40
2016,10,12,13,29,12.50
2016,10,12,13,30,16.60
2016,10,12,13,31,15.20
2016,10,12,13,32,15.70
2016,10,12,13,33,19.50
2016,10,12,13,34,15.30
2016,10,12,13,35,14.40
2016,10,12,13,36,16.50
2016,10,12,13,37,12.40
2016,10,12,13,38,12.60
2016,10,12,13,39,16.30
2016,10,12,13,40,17.20
2016,10,12,13,41,16.90
2016,10,12,13,42,17.70
2016,10,12,13,43,11.70
2016,10,12,13,44,13.50
2016,10,12,13,45,15.80
2016,10,12,13,46,15.50
2016,10,12,13,47,18.20
2016,10,12,13,48,16.00
2016,10,12,13,49,19.90
2016,10,12,13,50,17.50
2016,10,12,13,51,18.10
2016,10,12,13,52,16.70
2016,10,12,13,53,10.60
2016,10,12,13,54,13.30
2016,10,12,13,55,12.50
2016,10,12,13,56,12.00
2016,10,12,13,57,17.50
2016,10,12,13,58,11.40
2016,10,12,13,59,13.90
2016,10,12,14,00,14.10
2016,10,12,14,01,13.30
2016,10,12,14,02,15.20
2016,10,12,14,03,15.00
2016,10,12,14,04,13.80
2016,10,12,14,05,13.90
2016,10,12,14,06,12.90
2016,10,12,14,07,9.80
2016,10,12,14,08,13.00
2016,10,12,14,09,14.60
2016,10,12,14,10,14.90
2016,10,12,14,11,11.00
2016,10,12,14,12,17.30
2016,10,12,14,13,15.80
2016,10,12,14,14,14.70
2016,10,12,14,15,12.90
2016,10,12,14,16,13.50
2016,10,12,14,17,16.60
2016,10,12,14,18,13.80
2016,10,12,14,19,10.30
2016,10,12,14,20,13.40
2016,10,12,14,21,15.30
2016,10,12,14,22,14.20
2016,10,12,14,23,16.50
2016,10,12,14,24,14.40
2016,10,12,14,25,11.20
2016,10,12,14,26,15.00
2016,10,12,14,27,12.90
2016,10,12,14,28,9.30
2016,10,12,14,29,8.70
2016,10,12,14,30,9.40
2016,10,12,14,31,11.40
2016,10,12,14,32,13.30
2016,10,12,14,33,14.30
2016,10,12,14,34,18.70
2016,10,12,14,35,12.20
2016,10,12,14,36,13.50
2016,10,12,14,37,16.50
2016,10,12,14,38,15.60
2016,10,12,14,39,12.60
2016,10,12,14,40,12.20
2016,10,12,14,41,13.00
2016,10,12,14,42,13.40
2016,10,12,14,43,14.50
2016,10,12,14,44,10.20
2016,10,12,14,45,9.20
2016,10,12,14,46,9.30
2016,10,12,14,47,8.20
2016,10,12,14,48,13.90
2016,10,12,14,49,11.30
2016,10,12,14,50,7.30
2016,10,12,14,51,12.20
2016,10,12,14,52,11.90
2016,10,12,14,53,10.70
2016,10,12,14,54,11.40
2016,10,12,14,55,10.80
2016,10,12,14,56,8.00
2016,10,12,14,57,8.00
2016,10,12,14,58,12.00
2016,10,12,14,59,10.90
2016,10,12,15,00,14.00
2016,10,12,15,01,10.20
2016,10,12,15,02,5.90
2016,10,12,15,03,11.00
2016,10,12,15,04,10.50
2016,10,12,15,05,10.50
2016,10,12,15,06,9.00
2016,10,12,15,07,10.30
2016,10,12,15,08,10.50
2016,10,12,15,09,8.40
2016,10,12,15,10,8.10
2016,10,12,15,11,11.70
2016,10,12,15,12,12.90
2016,10,12,15,13,10.50
2016,10,12,15,14,12.10
2016,10,12,15,15,13.90
2016,10,12,15,16,13.30
2016,10,12,15,17,10.40
2016,10,12,15,18,7.10
2016,10,12,15,19,9.90
2016,10,12,15,20,10.80
2016,10,12,15,21,8.20
2016,10,12,15,22,4.50
2016,10,12,15,23,4.20
2016,10,12,15,24,6.10
2016,10,12,15,25,8.20
2016,10,12,15,26,8.00
2016,10,12,15,27,6.90
2016,10,12,15,28,10.40
2016,10,12,15,29,7.50
2016,10,12,15,30,8.90
2016,10,12,15,31,4.80
2016,10,12,15,32,7.00
2016,10,12,15,33,9.30
2016,10,12,15,34,12.60
2016,10,12,15,35,8.70
2016,10,12,15,36,9.20
2016,10,12,15,37,11.90
2016,10,12,15,38,9.70
2016,10,12,15,39,7.20
2016,10,12,15,40,8.00
2016,10,12,15,41,8.90
2016,10,12,15,42,10.70
2016,10,12,15,43,7.90
2016,10,12,15,44,8.40
2016,10,12,15,45,5.10
2016,10,12,15,46,1.80
2016,10,12,15,47,6.20
2016,10,12,15,48,3.70
2016,10,12,15,49,6.30
2016,10,12,15,50,8.40
2016,10,12,15,51,9.70
2016,10,12,15,52,9.40
2016,10,12,15,53,4.90
2016,10,12,15,54,2.20
2016,10,12,15,55,8.20
2016,10,12,15,56,8.50
2016,10,12,15,57,3.30
2016,10,12,15,58,8.90
2016,10,12,15,59,4.00
2016,10,12,16,00,8.10
2016,10,12,16,01,8.30
2016,10,12,16,02,0.30
2016,10,12,16,03,4.80
2016,10,12,16,04,5.20
2016,10,12,16,05,3.40
2016,10,12,16,06,5.60
2016,10,12,16,07,3.20
2016,10,12,16,08,7.90
2016,10,12,16,09,4.10
2016,10,12,16,10,8.50
2016,10,12,16,11,5.40
2016,10,12,16,12,4.50
2016,10,12,16,13,4.70
2016,10,12,16,14,2.80
2016,10,12,16,15,0.60
2016,10,12,16,16,1.20
2016,10,12,16,17,2.30
2016,10,12,16,18,0.20
2016,10,12,16,19,0.00
2016,10,12,16,20,0.20
2016,10,12,16,21,0.00
2016,10,12,16,22,0.00
2016,10,12,16,23,0.00
2016,10,12,16,24,0.00
2016,10,12,16,25,0.00
2016,10,12,16,26,0.00
2016,10,12,16,27,0.00
2016,10,12,16,28,0.00
2016,10,12,16,29,0.00
2016,10,12,16,30,0.00
2016,10,12,16,31,0.00
2016,10,12,16,32,0.00
2016,10,12,16,33,0.00
2016,10,12,16,34,0.00
2016,10,12,16,35,0.00
2016,10,12,16,36,0.00
2016,10,12,16,37,0.10
2016,10,12,16,38,4.70
2016,10,12,16,39,7.60
2016,10,12,16,40,4.70
2016,10,12,16,41,1.70
2016,10,12,16,42,2.80
2016,10,12,16,43,2.80
2016,10,12,16,44,3.20
2016,10,12,16,45,0.70
2016,10,12,16,46,4.20
2016,10,12,16,47,0.90
2016,10,12,16,48,0.00
2016,10,12,16,49,2.30
2016,10,12,16,50,6.30
2016,10,12,16,51,2.20
2016,10,12,16,52,0.00
2016,10,12,16,53,1.60
2016,10,12,16,54,3.90
2016,10,12,16,55,0.80
2016,10,12,16,56,0.00
2016,10,12,16,57,0.00
2016,10,12,16,58,0.00
2016,10,12,16,59,1.80
2016,10,12,17,00,0.00
2016,10,12,17,01,0.00
2016,10,12,17,02,1.50
2016,10,12,17,03,0.00
2016,10,12,17,04,0.00
2016,10,12,17,05,0.00
2016,10,12,17,06,0.00
2016,10,12,17,07,0.00
2016,10,12,17,08,0.00
2016,10,12,17,09,1.80
2016,10,12,17,10,1.10
2016,10,12,17,11,0.00
2016,10,12,17,12,0.00
2016,10,12,17,13,0.00
2016,10,12,17,14,0.00
2016,10,12,17,15,0.00
2016,10,12,17,16,0.00
2016,10,12,17,17,0.00
2016,10,12,17,18,0.00
2016,10,12,17,19,0.00
2016,10,12,17,20,0.00
2016,10,12,17,21,0.00
2016,10,12,17,22,0.00
2016,10,12,17,23,0.00
2016,10,12,17,24,0.00
2016,10,12,17,25,0.00
2016,10,12,17,26,0.00
2016,10,12,17,27,0.00
2016,10,12,17,28,0.00
2016,10,12,17,29,0.00
2016,10,12,17,30,0.10
2016,10,12,17,31,0.00
2016,10,12,17,32,0.00
2016,10,12,17,33,0.00
2016,10,12,17,34,0.00
2016,10,12,17,35,0.00
2016,10,12,17,36,0.00
2016,10,12,17,37,0.00
2016,10,12,17,38,0.00
2016,10,12,17,39,0.00
2016,10,12,17,40,0.00
2016,10,12,17,41,0.00
2016,10,12,17,42,0.00
2016,10,12,17,43,0.00
2016,10,12,17,44,0.00
2016,10,12,17,45,0.00
2016,10,12,17,46,0.00
2016,10,12,17,47,0.00
2016,10,12,17,48,0.00
2016,10,12,17,49,0.00
2016,10,12,17,50,0.00
2016,10,12,17,51,0.00
2016,10,12,17,52,0.10
2016,10,12,17,53,0.00